SHT2D EGLL-EGCC

Flight info

Callsign SHT2D
Flight time 0h 31m
Altitude 18000
Route ULTIB1J ULTIB T420 ELVOS ELVOS1M
Aircraft A320/M-SDE3FGIJ1KRWXY/SB1

Departure

Time 2026-05-07 10:37
Airport London Heathrow Airport (EGLL)

Arrival

Time 2026-05-07 11:09
Airport Manchester Airport (EGCC)
Time Latitude Longitude Altitude Speed Heading
2026-05-07 10:10 51.46931 -0.48647 86 ft 0 kts 360°
2026-05-07 10:29 51.46925 -0.48647 86 ft 4 kts
2026-05-07 10:29 51.46899 -0.48653 90 ft 4 kts 23°
2026-05-07 10:30 51.46877 -0.48689 86 ft 0 kts 90°
2026-05-07 10:33 51.46877 -0.48668 86 ft 4 kts 90°
2026-05-07 10:33 51.46877 -0.48608 86 ft 7 kts 89°
2026-05-07 10:33 51.46873 -0.48511 91 ft 10 kts 109°
2026-05-07 10:34 51.46805 -0.48469 86 ft 12 kts 177°
2026-05-07 10:34 51.46711 -0.48469 86 ft 15 kts 180°
2026-05-07 10:34 51.46613 -0.48468 86 ft 7 kts 179°
2026-05-07 10:34 51.46610 -0.48468 86 ft 0 kts 179°
2026-05-07 10:35 51.46589 -0.48468 86 ft 7 kts 179°
2026-05-07 10:36 51.46529 -0.48467 86 ft 10 kts 179°
2026-05-07 10:36 51.46476 -0.48423 91 ft 10 kts 91°
2026-05-07 10:36 51.46477 -0.48396 87 ft 7 kts 88°
2026-05-07 10:36 51.46480 -0.47901 88 ft 80 kts 90°
2026-05-07 10:37 51.46484 -0.46690 91 ft 134 kts 90°
2026-05-07 10:37 51.46488 -0.44990 107 ft 172 kts 90°
2026-05-07 10:37 51.46466 -0.43049 661 ft 175 kts 91°
2026-05-07 10:37 51.46677 -0.41151 1419 ft 177 kts 66°
2026-05-07 10:38 51.47436 -0.39479 1839 ft 197 kts 51°
2026-05-07 10:38 51.48377 -0.37708 2190 ft 218 kts 51°
2026-05-07 10:38 51.49403 -0.35766 2591 ft 238 kts 51°
2026-05-07 10:38 51.50521 -0.33637 3115 ft 258 kts 50°
2026-05-07 10:39 51.51691 -0.31397 3959 ft 265 kts 51°
2026-05-07 10:39 51.52574 -0.28770 4845 ft 271 kts 70°
2026-05-07 10:39 51.53267 -0.25925 5650 ft 276 kts 60°
2026-05-07 10:39 51.54516 -0.23604 5926 ft 276 kts 34°
2026-05-07 10:40 51.56261 -0.22437 6002 ft 273 kts
2026-05-07 10:40 51.58121 -0.22705 6010 ft 270 kts 340°
2026-05-07 10:40 51.59923 -0.23592 6016 ft 272 kts 345°
2026-05-07 10:40 51.61761 -0.24346 6059 ft 272 kts 339°
2026-05-07 10:41 51.63458 -0.25619 6588 ft 273 kts 330°
2026-05-07 10:41 51.65128 -0.27095 7491 ft 275 kts 329°
2026-05-07 10:41 51.66799 -0.28647 8342 ft 278 kts 329°
2026-05-07 10:41 51.68475 -0.30246 9170 ft 282 kts 329°
2026-05-07 10:42 51.70171 -0.31883 9991 ft 287 kts 329°
2026-05-07 10:42 51.71921 -0.33573 10447 ft 303 kts 329°
2026-05-07 10:42 51.73803 -0.35394 10648 ft 327 kts 329°
2026-05-07 10:42 51.75796 -0.37324 11079 ft 339 kts 328°
2026-05-07 10:43 51.77836 -0.39302 11742 ft 344 kts 328°
2026-05-07 10:43 51.79900 -0.41304 12422 ft 348 kts 328°
2026-05-07 10:43 51.81992 -0.43329 13114 ft 352 kts 328°
2026-05-07 10:43 51.84103 -0.45373 13790 ft 355 kts 328°
2026-05-07 10:44 51.86234 -0.47437 14399 ft 359 kts 328°
2026-05-07 10:44 51.88383 -0.49526 15002 ft 362 kts 328°
2026-05-07 10:44 51.90521 -0.51612 15596 ft 365 kts 328°
2026-05-07 10:44 51.92703 -0.53743 16190 ft 368 kts 328°
2026-05-07 10:45 51.94908 -0.55896 16771 ft 371 kts 327°
2026-05-07 10:45 51.97122 -0.58059 17366 ft 374 kts 328°
2026-05-07 10:45 51.99364 -0.60251 17922 ft 377 kts 328°
2026-05-07 10:45 52.01618 -0.62456 18056 ft 382 kts 328°
2026-05-07 10:46 52.03932 -0.64724 18088 ft 393 kts 328°
2026-05-07 10:46 52.05485 -0.66247 18083 ft 395 kts 328°
2026-05-07 10:46 52.07871 -0.68588 18086 ft 396 kts 328°
2026-05-07 10:46 52.10227 -0.70904 18083 ft 396 kts 328°
2026-05-07 10:47 52.12553 -0.73193 18084 ft 396 kts 327°
2026-05-07 10:47 52.14911 -0.75515 18085 ft 396 kts 327°
2026-05-07 10:47 52.17265 -0.77838 18083 ft 396 kts 328°
2026-05-07 10:47 52.19624 -0.80167 18080 ft 396 kts 327°
2026-05-07 10:48 52.21979 -0.82502 18080 ft 396 kts 327°
2026-05-07 10:48 52.24333 -0.84837 18078 ft 396 kts 327°
2026-05-07 10:48 52.26688 -0.87173 18079 ft 396 kts 327°
2026-05-07 10:48 52.29044 -0.89508 18082 ft 396 kts 327°
2026-05-07 10:49 52.31401 -0.91849 18084 ft 396 kts 327°
2026-05-07 10:49 52.33755 -0.94191 18085 ft 396 kts 327°
2026-05-07 10:49 52.36114 -0.96542 18084 ft 396 kts 327°
2026-05-07 10:49 52.38461 -0.98890 18084 ft 396 kts 327°
2026-05-07 10:50 52.40817 -1.01251 18083 ft 396 kts 327°
2026-05-07 10:50 52.43166 -1.03606 18067 ft 396 kts 327°
2026-05-07 10:50 52.45526 -1.05977 18063 ft 397 kts 327°
2026-05-07 10:50 52.47849 -1.08312 18058 ft 397 kts 327°
2026-05-07 10:51 52.50200 -1.10672 18053 ft 397 kts 327°
2026-05-07 10:51 52.52558 -1.13041 18051 ft 397 kts 327°
2026-05-07 10:51 52.54913 -1.15407 18046 ft 397 kts 327°
2026-05-07 10:51 52.57304 -1.17812 18044 ft 397 kts 327°
2026-05-07 10:52 52.59627 -1.20153 18041 ft 397 kts 327°
2026-05-07 10:52 52.61986 -1.22536 18038 ft 397 kts 327°
2026-05-07 10:52 52.64337 -1.24911 18037 ft 397 kts 327°
2026-05-07 10:52 52.66695 -1.27301 18037 ft 397 kts 327°
2026-05-07 10:53 52.69046 -1.29684 18042 ft 397 kts 327°
2026-05-07 10:53 52.71398 -1.32068 18040 ft 397 kts 327°
2026-05-07 10:53 52.73756 -1.34464 18096 ft 397 kts 327°
2026-05-07 10:53 52.76078 -1.36831 17883 ft 387 kts 327°
2026-05-07 10:54 52.78334 -1.39135 17611 ft 375 kts 327°
2026-05-07 10:54 52.80522 -1.41374 17337 ft 365 kts 327°
2026-05-07 10:54 52.82661 -1.43562 17063 ft 360 kts 327°
2026-05-07 10:54 52.84783 -1.45735 16819 ft 358 kts 327°
2026-05-07 10:55 52.86898 -1.47906 16551 ft 356 kts 327°
2026-05-07 10:55 52.88997 -1.50065 16271 ft 352 kts 326°
2026-05-07 10:55 52.91070 -1.52194 15808 ft 349 kts 327°
2026-05-07 10:55 52.93126 -1.54309 15334 ft 346 kts 327°
2026-05-07 10:56 52.95167 -1.56411 14855 ft 345 kts 327°
2026-05-07 10:56 52.97176 -1.58484 14352 ft 344 kts 327°
2026-05-07 10:56 52.99205 -1.60585 13913 ft 342 kts 326°
2026-05-07 10:56 53.01219 -1.62669 13435 ft 339 kts 326°
2026-05-07 10:57 53.03217 -1.64736 12975 ft 337 kts 326°
2026-05-07 10:57 53.05141 -1.66925 12513 ft 333 kts 318°
2026-05-07 10:57 53.06763 -1.69633 12064 ft 329 kts 308°
2026-05-07 10:57 53.08248 -1.72529 11609 ft 327 kts 309°
2026-05-07 10:58 53.09721 -1.75390 11217 ft 322 kts 309°
2026-05-07 10:58 53.11142 -1.78131 10996 ft 302 kts 309°
2026-05-07 10:58 53.12486 -1.80724 10629 ft 291 kts 308°
2026-05-07 10:58 53.13795 -1.83262 10104 ft 287 kts 308°
2026-05-07 10:59 53.15088 -1.85773 9677 ft 285 kts 308°
2026-05-07 10:59 53.16389 -1.88305 9306 ft 288 kts 308°
2026-05-07 10:59 53.17691 -1.90844 8932 ft 288 kts 309°
2026-05-07 10:59 53.18977 -1.93359 8560 ft 282 kts 308°
2026-05-07 11:00 53.20242 -1.95831 8192 ft 278 kts 308°
2026-05-07 11:00 53.21494 -1.98279 7832 ft 276 kts 308°
2026-05-07 11:00 53.22825 -2.00550 7472 ft 273 kts 320°
2026-05-07 11:00 53.24471 -2.01989 7152 ft 271 kts 344°
2026-05-07 11:01 53.26299 -2.02013 7075 ft 259 kts 11°
2026-05-07 11:01 53.28055 -2.01246 7083 ft 262 kts 14°
2026-05-07 11:01 53.29813 -2.00358 6834 ft 262 kts 16°
2026-05-07 11:01 53.31547 -1.99463 6491 ft 260 kts 15°
2026-05-07 11:02 53.33266 -1.98575 6091 ft 258 kts 15°
2026-05-07 11:02 53.34980 -1.97687 5667 ft 258 kts 16°
2026-05-07 11:02 53.36700 -1.96810 5211 ft 259 kts 15°
2026-05-07 11:02 53.38432 -1.95954 4747 ft 259 kts 15°
2026-05-07 11:03 53.40166 -1.95106 4279 ft 260 kts 15°
2026-05-07 11:03 53.41915 -1.94284 3798 ft 261 kts 11°
2026-05-07 11:03 53.43708 -1.94355 3331 ft 259 kts 341°
2026-05-07 11:03 53.45338 -1.95569 3010 ft 252 kts 324°
2026-05-07 11:04 53.46504 -1.97630 2991 ft 243 kts 294°
2026-05-07 11:04 53.46955 -2.00252 2992 ft 231 kts 274°
2026-05-07 11:04 53.46883 -2.02789 2993 ft 208 kts 249°
2026-05-07 11:04 53.46266 -2.04834 2999 ft 187 kts 228°
2026-05-07 11:05 53.45470 -2.06489 3014 ft 179 kts 228°
2026-05-07 11:05 53.44721 -2.08058 2948 ft 165 kts 228°
2026-05-07 11:05 53.44017 -2.09527 2775 ft 158 kts 227°
2026-05-07 11:05 53.43338 -2.10943 2603 ft 154 kts 227°
2026-05-07 11:06 53.42665 -2.12345 2400 ft 153 kts 227°
2026-05-07 11:06 53.41998 -2.13735 2183 ft 153 kts 227°
2026-05-07 11:06 53.41328 -2.15129 1966 ft 154 kts 227°
2026-05-07 11:06 53.40653 -2.16532 1760 ft 154 kts 226°
2026-05-07 11:07 53.39980 -2.17934 1541 ft 155 kts 226°
2026-05-07 11:07 53.39307 -2.19332 1332 ft 152 kts 226°
2026-05-07 11:07 53.38684 -2.20631 1112 ft 138 kts 226°
2026-05-07 11:07 53.38079 -2.21887 914 ft 137 kts 229°
2026-05-07 11:08 53.37486 -2.23117 732 ft 137 kts 229°
2026-05-07 11:08 53.36887 -2.24358 541 ft 136 kts 229°
2026-05-07 11:08 53.36292 -2.25592 367 ft 136 kts 228°
2026-05-07 11:08 53.35711 -2.26831 271 ft 134 kts 224°
2026-05-07 11:09 53.35203 -2.27840 237 ft 76 kts 232°
2026-05-07 11:09 53.35022 -2.28237 232 ft 35 kts 237°
2026-05-07 11:09 53.34947 -2.28604 230 ft 22 kts 261°
2026-05-07 11:09 53.34982 -2.28750 227 ft 9 kts 345°
2026-05-07 11:10 53.35042 -2.28691 228 ft 11 kts 47°
2026-05-07 11:10 53.35091 -2.28594 230 ft 12 kts 51°
2026-05-07 11:10 53.35155 -2.28460 227 ft 16 kts 51°
2026-05-07 11:10 53.35182 -2.28403 231 ft 0 kts 51°
2026-05-07 11:12 53.35184 -2.28400 229 ft 2 kts 51°
2026-05-07 11:12 53.35204 -2.28358 233 ft 7 kts 51°
2026-05-07 11:12 53.35245 -2.28275 232 ft 13 kts 51°
2026-05-07 11:12 53.35312 -2.28154 234 ft 14 kts 44°
2026-05-07 11:13 53.35383 -2.28039 237 ft 15 kts 44°
2026-05-07 11:13 53.35462 -2.27913 239 ft 16 kts 43°
2026-05-07 11:13 53.35552 -2.27789 238 ft 19 kts 24°
2026-05-07 11:13 53.35662 -2.27763 243 ft 15 kts
2026-05-07 11:14 53.35761 -2.27747 248 ft 13 kts
2026-05-07 11:14 53.35845 -2.27733 253 ft 11 kts
2026-05-07 11:14 53.35919 -2.27726 255 ft 11 kts
2026-05-07 11:14 53.36000 -2.27771 255 ft 14 kts 324°
2026-05-07 11:15 53.36081 -2.27877 255 ft 16 kts 322°
2026-05-07 11:15 53.36175 -2.28000 255 ft 14 kts 319°
2026-05-07 11:15 53.36249 -2.28125 255 ft 16 kts 314°
2026-05-07 11:15 53.36336 -2.28271 255 ft 19 kts 315°
2026-05-07 11:16 53.36395 -2.28385 255 ft 13 kts 297°
2026-05-07 11:16 53.36442 -2.28523 255 ft 15 kts 311°
2026-05-07 11:16 53.36521 -2.28658 255 ft 17 kts 315°
2026-05-07 11:16 53.36586 -2.28796 255 ft 16 kts 298°
2026-05-07 11:17 53.36654 -2.28933 255 ft 15 kts 314°
2026-05-07 11:17 53.36734 -2.29058 255 ft 16 kts 327°
2026-05-07 11:17 53.36828 -2.29036 255 ft 15 kts 25°
2026-05-07 11:17 53.36904 -2.28922 255 ft 13 kts 45°
2026-05-07 11:18 53.36955 -2.28838 255 ft 7 kts 46°
2026-05-07 11:18 53.36938 -2.28773 255 ft 7 kts 139°
2026-05-07 11:18 53.36925 -2.28751 255 ft 3 kts 134°
2026-05-07 11:18 53.36919 -2.28742 255 ft 0 kts 134°